Погода в Пригородном

Россия / Чеченская Республика     43°15′08″N   45°45′45″E
темп.,
°C
ветер,
м/с
пор.,
м/с
влажн.,
%
обл.,
%
осадки,
мм/ч
давл.,
гПа
погр.,
м
18 апреля, вс
вс1800:00+14зсз1269100 0.0 1021372
03:00+12ссв117599 0.0 1021224
06:00+12св1276100 0.0 1020206
09:00+15всв3460100 0.0 1018825
12:00+20св334069 0.0 10161244
15:00+21всв3341100 0.3 10161419
18:00+18всв235592 0.3 1017583
21:00+16всв2374100 1.2 1017194
19 апреля, пн
пн1900:00+14всв2468100 0.1 1017168
03:00+13ссз0170100 0.1 101727
06:00+13вюв116872 0.0 101643
09:00+18ссв334811 0.0 1017628
12:00+22всв344097 0.0 10151134
15:00+23всв553999 0.0 10141445
18:00+19всв4648100 0.0 1014559
21:00+15в235627 0.0 1016255
20 апреля, вт
вт2000:00+14всв126285 0.0 1014100
03:00+13в126499 0.0 101263
06:00+13всв1269100 0.0 1010102
09:00+19св235016 0.0 1008368
12:00+26всв3438100 0.0 1004619
15:00+29св4433100 0.0 1003619
18:00+22ссв1252100 0.0 1004170
21:00+18в1165100 0.1 1007113
21 апреля, ср
ср2100:00+17з386981 0.0 1010317
03:00+16з497699 0.0 1013609
06:00+15зсз5975100 0.1 10161009
09:00+14з5767100 0.4 1019939
12:00+14зсз3561100 0.1 10211034
15:00+14сз3360100 0.1 1021896
18:00+13зсз2362100 0.0 1023474
21:00+12зсз2365100 0.0 1024350
22 апреля, чт
чт2200:00+12з1266100 0.0 1023319
03:00+12з1266100 0.0 1023289
06:00+12зсз1166100 0.0 1024288
09:00+12св1166100 0.0 1024448
12:00+14ссз2263100 0.0 10231069
15:00+13сз4571100 0.1 1024655
18:00+12з2376100 0.1 1025423
21:00+11юз1277100 0.1 1024247